AAL3950 KORD-KDTW

Flight info

Callsign AAL3950
Flight time 0h 52m
Altitude 33000
Route RAYNR BRTMN TAAYZ PORZL RKCTY2
Aircraft A320/M-SDE3FGHIRWY/LB1

Departure

Time 2026-05-04 02:39
Airport Chicago O'Hare International Airport (KORD)

Arrival

Time 2026-05-04 03:31
Airport Detroit Metropolitan Wayne County Airport (KDTW)
Time Latitude Longitude Altitude Speed Heading
2026-05-04 02:08 41.97311 -87.89966 671 ft 0 kts 245°
2026-05-04 02:26 41.97315 -87.89957 669 ft 4 kts 280°
2026-05-04 02:26 41.97313 -87.89942 670 ft 4 kts 261°
2026-05-04 02:27 41.97320 -87.89908 668 ft 4 kts 235°
2026-05-04 02:27 41.97337 -87.89889 668 ft 4 kts 173°
2026-05-04 02:27 41.97345 -87.89891 668 ft 0 kts 145°
2026-05-04 02:34 41.97342 -87.89888 669 ft 2 kts 145°
2026-05-04 02:34 41.97289 -87.89839 670 ft 13 kts 145°
2026-05-04 02:34 41.97221 -87.89850 670 ft 13 kts 249°
2026-05-04 02:35 41.97207 -87.89973 670 ft 14 kts 272°
2026-05-04 02:35 41.97195 -87.90110 670 ft 15 kts 239°
2026-05-04 02:35 41.97105 -87.90133 670 ft 15 kts 188°
2026-05-04 02:35 41.97043 -87.90055 670 ft 14 kts 94°
2026-05-04 02:36 41.97044 -87.89934 670 ft 12 kts 89°
2026-05-04 02:36 41.97044 -87.89830 670 ft 10 kts 90°
2026-05-04 02:36 41.97043 -87.89741 670 ft 9 kts 91°
2026-05-04 02:36 41.97042 -87.89667 670 ft 7 kts 89°
2026-05-04 02:37 41.97040 -87.89606 670 ft 6 kts 98°
2026-05-04 02:37 41.97019 -87.89574 669 ft 4 kts 154°
2026-05-04 02:37 41.96999 -87.89568 668 ft 2 kts 172°
2026-05-04 02:37 41.96980 -87.89566 671 ft 6 kts 178°
2026-05-04 02:38 41.96942 -87.89568 671 ft 7 kts 187°
2026-05-04 02:38 41.96906 -87.89626 671 ft 9 kts 259°
2026-05-04 02:38 41.96906 -87.89724 671 ft 16 kts 270°
2026-05-04 02:38 41.96904 -87.90204 669 ft 86 kts 269°
2026-05-04 02:39 41.96903 -87.91275 673 ft 140 kts 270°
2026-05-04 02:39 41.96899 -87.92783 716 ft 179 kts 270°
2026-05-04 02:39 41.96887 -87.94437 1465 ft 174 kts 268°
2026-05-04 02:39 41.96861 -87.96037 2262 ft 169 kts 270°
2026-05-04 02:40 41.96839 -87.97650 2775 ft 181 kts 269°
2026-05-04 02:40 41.96880 -87.99435 3061 ft 201 kts 279°
2026-05-04 02:40 41.97571 -88.01179 3447 ft 228 kts 314°
2026-05-04 02:40 41.99094 -88.02086 3934 ft 258 kts 352°
2026-05-04 02:41 42.00911 -88.01704 4751 ft 272 kts 13°
2026-05-04 02:41 42.02685 -88.00733 5625 ft 278 kts 21°
2026-05-04 02:41 42.04400 -87.99562 6500 ft 281 kts 23°
2026-05-04 02:41 42.06137 -87.98325 7354 ft 284 kts 23°
2026-05-04 02:42 42.07897 -87.97097 8222 ft 286 kts 22°
2026-05-04 02:42 42.09680 -87.95902 9101 ft 287 kts 21°
2026-05-04 02:42 42.11487 -87.94733 9939 ft 289 kts 20°
2026-05-04 02:42 42.13351 -87.93558 10384 ft 306 kts 20°
2026-05-04 02:43 42.15362 -87.92320 10616 ft 329 kts 20°
2026-05-04 02:43 42.17488 -87.91020 11159 ft 338 kts 20°
2026-05-04 02:43 42.19651 -87.89693 11843 ft 343 kts 20°
2026-05-04 02:43 42.21838 -87.88345 12571 ft 347 kts 20°
2026-05-04 02:44 42.24041 -87.86979 13292 ft 350 kts 20°
2026-05-04 02:44 42.26264 -87.85600 13949 ft 353 kts 20°
2026-05-04 02:44 42.28508 -87.84208 14582 ft 356 kts 20°
2026-05-04 02:44 42.30808 -87.82959 15236 ft 355 kts 12°
2026-05-04 02:45 42.33219 -87.82307 15860 ft 352 kts
2026-05-04 02:45 42.35663 -87.82008 16498 ft 354 kts
2026-05-04 02:45 42.38126 -87.81702 17130 ft 357 kts
2026-05-04 02:45 42.40579 -87.81393 17731 ft 360 kts
2026-05-04 02:46 42.43090 -87.81077 18295 ft 363 kts
2026-05-04 02:46 42.45613 -87.80758 18835 ft 365 kts
2026-05-04 02:46 42.48145 -87.80577 19365 ft 364 kts 354°
2026-05-04 02:46 42.50687 -87.80728 19891 ft 366 kts 354°
2026-05-04 02:47 42.53239 -87.80888 20425 ft 368 kts 354°
2026-05-04 02:47 42.55804 -87.81052 20942 ft 370 kts 354°
2026-05-04 02:47 42.58389 -87.81219 21457 ft 372 kts 354°
2026-05-04 02:47 42.60979 -87.81388 21969 ft 374 kts 354°
2026-05-04 02:48 42.63584 -87.81558 22462 ft 376 kts 354°
2026-05-04 02:48 42.66209 -87.81729 22943 ft 378 kts 354°
2026-05-04 02:48 42.68852 -87.81681 23402 ft 384 kts
2026-05-04 02:48 42.71491 -87.80936 23799 ft 391 kts 13°
2026-05-04 02:49 42.74003 -87.79474 24206 ft 398 kts 25°
2026-05-04 02:49 42.76294 -87.77305 24609 ft 406 kts 36°
2026-05-04 02:49 42.78363 -87.74653 25008 ft 409 kts 39°
2026-05-04 02:49 42.80421 -87.71974 25402 ft 410 kts 39°
2026-05-04 02:50 42.82490 -87.69291 25809 ft 411 kts 38°
2026-05-04 02:50 42.84568 -87.66599 26191 ft 412 kts 38°
2026-05-04 02:50 42.86650 -87.63906 26569 ft 414 kts 38°
2026-05-04 02:50 42.88739 -87.61195 26953 ft 415 kts 38°
2026-05-04 02:51 42.90834 -87.58477 27318 ft 416 kts 38°
2026-05-04 02:51 42.92938 -87.55744 27695 ft 418 kts 38°
2026-05-04 02:51 42.95045 -87.53001 28076 ft 419 kts 38°
2026-05-04 02:51 42.97155 -87.50250 28427 ft 420 kts 38°
2026-05-04 02:52 42.99271 -87.47485 28790 ft 422 kts 38°
2026-05-04 02:52 43.01393 -87.44712 29139 ft 422 kts 38°
2026-05-04 02:52 43.03515 -87.41937 29489 ft 423 kts 38°
2026-05-04 02:52 43.05642 -87.39158 29811 ft 424 kts 38°
2026-05-04 02:53 43.07776 -87.36364 30067 ft 426 kts 38°
2026-05-04 02:53 43.09921 -87.33553 30282 ft 428 kts 38°
2026-05-04 02:53 43.12080 -87.30726 30489 ft 431 kts 38°
2026-05-04 02:53 43.14252 -87.27880 30678 ft 434 kts 38°
2026-05-04 02:54 43.16435 -87.25003 30867 ft 437 kts 38°
2026-05-04 02:54 43.18628 -87.22108 31064 ft 439 kts 38°
2026-05-04 02:54 43.20829 -87.19193 31336 ft 441 kts 40°
2026-05-04 02:54 43.22817 -87.15946 31638 ft 448 kts 49°
2026-05-04 02:55 43.25607 -87.08166 32155 ft 465 kts 68°
2026-05-04 02:55 43.26286 -87.03795 32390 ft 473 kts 78°
2026-05-04 02:55 43.26515 -86.99262 32623 ft 478 kts 82°
2026-05-04 02:56 43.26688 -86.94759 32750 ft 476 kts 82°
2026-05-04 02:56 43.27033 -86.85761 32772 ft 469 kts 82°
2026-05-04 02:57 43.27375 -86.76827 32778 ft 468 kts 82°
2026-05-04 02:57 43.27697 -86.67896 32778 ft 468 kts 82°
2026-05-04 02:58 43.28014 -86.58965 32786 ft 468 kts 82°
2026-05-04 02:58 43.28337 -86.50042 32787 ft 468 kts 83°
2026-05-04 02:59 43.28638 -86.41123 32783 ft 467 kts 83°
2026-05-04 02:59 43.28937 -86.32273 32789 ft 467 kts 83°
2026-05-04 03:00 43.29238 -86.23355 32777 ft 467 kts 83°
2026-05-04 03:00 43.29526 -86.14442 32790 ft 467 kts 83°
2026-05-04 03:00 43.29663 -86.09978 32592 ft 469 kts 83°
2026-05-04 03:01 43.29799 -86.05510 32322 ft 468 kts 83°
2026-05-04 03:01 43.29907 -86.01043 32056 ft 468 kts 84°
2026-05-04 03:01 43.29960 -85.96565 31793 ft 468 kts 85°
2026-05-04 03:01 43.29977 -85.92099 31533 ft 468 kts 85°
2026-05-04 03:02 43.29981 -85.87636 31277 ft 468 kts 85°
2026-05-04 03:02 43.29982 -85.83174 31023 ft 467 kts 85°
2026-05-04 03:02 43.29991 -85.78718 30771 ft 466 kts 85°
2026-05-04 03:02 43.30010 -85.74316 30524 ft 466 kts 84°
2026-05-04 03:03 43.30035 -85.69863 30280 ft 465 kts 84°
2026-05-04 03:03 43.30063 -85.65429 30037 ft 465 kts 84°
2026-05-04 03:03 43.30088 -85.60997 29782 ft 464 kts 84°
2026-05-04 03:03 43.30112 -85.56563 29496 ft 465 kts 84°
2026-05-04 03:04 43.30133 -85.52113 29212 ft 466 kts 84°
2026-05-04 03:04 43.30150 -85.47663 28932 ft 467 kts 84°
2026-05-04 03:04 43.30160 -85.43196 28644 ft 468 kts 85°
2026-05-04 03:04 43.30164 -85.38722 28392 ft 469 kts 85°
2026-05-04 03:05 43.30169 -85.34248 28118 ft 469 kts 85°
2026-05-04 03:05 43.30173 -85.29775 27843 ft 468 kts 86°
2026-05-04 03:05 43.29913 -85.25314 27574 ft 471 kts 95°
2026-05-04 03:05 43.29163 -85.20933 27305 ft 474 kts 105°
2026-05-04 03:06 43.27928 -85.16728 27041 ft 475 kts 114°
2026-05-04 03:06 43.26267 -85.12810 26730 ft 474 kts 121°
2026-05-04 03:06 43.24496 -85.09018 26060 ft 471 kts 121°
2026-05-04 03:06 43.22733 -85.05252 25423 ft 467 kts 121°
2026-05-04 03:07 43.20985 -85.01518 24784 ft 464 kts 122°
2026-05-04 03:07 43.19243 -84.97803 24161 ft 461 kts 122°
2026-05-04 03:07 43.17535 -84.94165 23558 ft 458 kts 122°
2026-05-04 03:07 43.15812 -84.90508 22901 ft 455 kts 122°
2026-05-04 03:08 43.14115 -84.86912 22720 ft 440 kts 122°
2026-05-04 03:08 43.12463 -84.83457 22421 ft 430 kts 123°
2026-05-04 03:08 43.10799 -84.80094 22023 ft 423 kts 124°
2026-05-04 03:08 43.09132 -84.76799 21789 ft 420 kts 124°
2026-05-04 03:09 43.07461 -84.73523 21489 ft 418 kts 125°
2026-05-04 03:09 43.05799 -84.70267 21146 ft 416 kts 125°
2026-05-04 03:09 43.04154 -84.67030 20815 ft 414 kts 125°
2026-05-04 03:09 43.02524 -84.63801 20479 ft 411 kts 125°
2026-05-04 03:10 43.00909 -84.60597 20147 ft 409 kts 125°
2026-05-04 03:10 42.99297 -84.57406 19815 ft 407 kts 125°
2026-05-04 03:10 42.97692 -84.54238 19486 ft 404 kts 126°
2026-05-04 03:10 42.96097 -84.51087 19159 ft 402 kts 125°
2026-05-04 03:11 42.94511 -84.47947 18845 ft 400 kts 126°
2026-05-04 03:11 42.92946 -84.44820 18442 ft 398 kts 125°
2026-05-04 03:11 42.91399 -84.41688 18038 ft 396 kts 125°
2026-05-04 03:11 42.89872 -84.38583 17644 ft 393 kts 125°
2026-05-04 03:12 42.88350 -84.35493 17273 ft 391 kts 125°
2026-05-04 03:12 42.86833 -84.32419 16960 ft 390 kts 125°
2026-05-04 03:12 42.85318 -84.29352 16627 ft 389 kts 125°
2026-05-04 03:12 42.83805 -84.26299 16256 ft 387 kts 125°
2026-05-04 03:13 42.82301 -84.23270 15886 ft 385 kts 125°
2026-05-04 03:13 42.80821 -84.20294 15525 ft 383 kts 125°
2026-05-04 03:13 42.79326 -84.17293 15157 ft 381 kts 125°
2026-05-04 03:13 42.77842 -84.14313 14792 ft 379 kts 125°
2026-05-04 03:14 42.76362 -84.11351 14430 ft 377 kts 126°
2026-05-04 03:14 42.75380 -84.09390 14189 ft 376 kts 126°
2026-05-04 03:14 42.73913 -84.06460 13831 ft 374 kts 126°
2026-05-04 03:14 42.72453 -84.03545 13452 ft 372 kts 126°
2026-05-04 03:15 42.71000 -84.00645 13128 ft 367 kts 126°
2026-05-04 03:15 42.69602 -83.97814 12986 ft 356 kts 122°
2026-05-04 03:15 42.68535 -83.94830 12769 ft 349 kts 109°
2026-05-04 03:15 42.67884 -83.91673 12442 ft 345 kts 103°
2026-05-04 03:16 42.67301 -83.88527 12079 ft 343 kts 104°
2026-05-04 03:16 42.66714 -83.85392 11723 ft 340 kts 104°
2026-05-04 03:16 42.66129 -83.82293 11368 ft 338 kts 104°
2026-05-04 03:16 42.65548 -83.79212 11015 ft 335 kts 104°
2026-05-04 03:17 42.64967 -83.76152 10670 ft 333 kts 104°
2026-05-04 03:17 42.64386 -83.73113 10373 ft 329 kts 105°
2026-05-04 03:17 42.63820 -83.70153 10270 ft 319 kts 105°
2026-05-04 03:17 42.63272 -83.67285 10122 ft 309 kts 105°
2026-05-04 03:18 42.62742 -83.64497 9997 ft 300 kts 105°
2026-05-04 03:18 42.62220 -83.61809 9690 ft 299 kts 106°
2026-05-04 03:18 42.61657 -83.59113 9374 ft 296 kts 107°
2026-05-04 03:18 42.61074 -83.56418 8968 ft 295 kts 107°
2026-05-04 03:19 42.60494 -83.53764 8419 ft 293 kts 107°
2026-05-04 03:19 42.59920 -83.51128 7917 ft 291 kts 108°
2026-05-04 03:19 42.59347 -83.48483 7498 ft 293 kts 108°
2026-05-04 03:19 42.58779 -83.45829 7117 ft 292 kts 108°
2026-05-04 03:20 42.58209 -83.43175 6757 ft 292 kts 108°
2026-05-04 03:20 42.57635 -83.40523 6338 ft 291 kts 108°
2026-05-04 03:20 42.57081 -83.37948 6076 ft 276 kts 108°
2026-05-04 03:20 42.56566 -83.35536 5955 ft 258 kts 108°
2026-05-04 03:21 42.56073 -83.33273 5805 ft 243 kts 111°
2026-05-04 03:21 42.55554 -83.31151 5681 ft 231 kts 112°
2026-05-04 03:21 42.55059 -83.29131 5509 ft 221 kts 112°
2026-05-04 03:21 42.54586 -83.27161 5231 ft 218 kts 113°
2026-05-04 03:22 42.54137 -83.25224 4911 ft 218 kts 112°
2026-05-04 03:22 42.53680 -83.23256 4607 ft 216 kts 120°
2026-05-04 03:22 42.52874 -83.21664 4321 ft 198 kts 147°
2026-05-04 03:22 42.51879 -83.20418 4038 ft 192 kts 151°
2026-05-04 03:23 42.50876 -83.19254 3777 ft 188 kts 153°
2026-05-04 03:23 42.49824 -83.18348 3522 ft 173 kts 168°
2026-05-04 03:23 42.48745 -83.17723 3327 ft 163 kts 172°
2026-05-04 03:23 42.47738 -83.17167 3207 ft 150 kts 172°
2026-05-04 03:24 42.46806 -83.16635 3092 ft 140 kts 172°
2026-05-04 03:24 42.45943 -83.16203 3028 ft 122 kts 186°
2026-05-04 03:24 42.45069 -83.16324 2990 ft 138 kts 208°
2026-05-04 03:24 42.44189 -83.16954 2979 ft 147 kts 214°
2026-05-04 03:25 42.43288 -83.17624 2980 ft 148 kts 214°
2026-05-04 03:25 42.42385 -83.18294 2979 ft 148 kts 214°
2026-05-04 03:25 42.41482 -83.18964 2980 ft 148 kts 214°
2026-05-04 03:25 42.40581 -83.19633 2972 ft 147 kts 214°
2026-05-04 03:26 42.39690 -83.20295 2997 ft 149 kts 213°
2026-05-04 03:26 42.38785 -83.20966 2994 ft 148 kts 213°
2026-05-04 03:26 42.37877 -83.21639 2996 ft 149 kts 213°
2026-05-04 03:26 42.36971 -83.22311 2994 ft 148 kts 214°
2026-05-04 03:27 42.36065 -83.22983 2992 ft 149 kts 214°
2026-05-04 03:27 42.35157 -83.23656 2999 ft 148 kts 214°
2026-05-04 03:27 42.34251 -83.24327 3001 ft 149 kts 214°
2026-05-04 03:27 42.33343 -83.25000 3002 ft 149 kts 213°
2026-05-04 03:28 42.32430 -83.25676 2968 ft 150 kts 213°
2026-05-04 03:28 42.31520 -83.26349 2836 ft 149 kts 213°
2026-05-04 03:28 42.30612 -83.27021 2656 ft 149 kts 212°
2026-05-04 03:28 42.29707 -83.27690 2467 ft 148 kts 212°
2026-05-04 03:29 42.28814 -83.28351 2277 ft 149 kts 211°
2026-05-04 03:29 42.27935 -83.28999 2072 ft 137 kts 211°
2026-05-04 03:29 42.27146 -83.29582 1913 ft 121 kts 210°
2026-05-04 03:29 42.26447 -83.30097 1752 ft 109 kts 210°
2026-05-04 03:30 42.25787 -83.30586 1570 ft 108 kts 209°
2026-05-04 03:30 42.25112 -83.31085 1411 ft 111 kts 209°
2026-05-04 03:30 42.24425 -83.31592 1252 ft 117 kts 208°
2026-05-04 03:30 42.23704 -83.32124 1068 ft 117 kts 208°
2026-05-04 03:31 42.23009 -83.32638 926 ft 117 kts 209°
2026-05-04 03:31 42.22303 -83.33171 756 ft 115 kts 207°
2026-05-04 03:31 42.21608 -83.33670 653 ft 104 kts 206°
2026-05-04 03:31 42.21192 -83.33993 652 ft 27 kts 209°
2026-05-04 03:32 42.21023 -83.34107 652 ft 31 kts 205°
2026-05-04 03:32 42.20814 -83.34259 649 ft 37 kts 210°
2026-05-04 03:32 42.20607 -83.34475 652 ft 38 kts 233°
2026-05-04 03:32 42.20607 -83.34668 650 ft 25 kts 332°
2026-05-04 03:33 42.20717 -83.34574 652 ft 13 kts 36°
2026-05-04 03:33 42.20810 -83.34521 651 ft 0 kts 29°
2026-05-04 03:33 42.20848 -83.34490 649 ft 10 kts 31°
2026-05-04 03:33 42.20907 -83.34442 649 ft 9 kts 30°
2026-05-04 03:34 42.20960 -83.34406 649 ft 8 kts 26°
2026-05-04 03:34 42.21011 -83.34393 649 ft 6 kts 341°
2026-05-04 03:34 42.21039 -83.34433 649 ft 5 kts 303°
2026-05-04 03:34 42.21055 -83.34472 650 ft 4 kts 300°